Regional Weather Roundup
Issued by NWS Bismarck, ND

Home | Current Version | Previous Version | Graphics & Text | Print | Product List | Glossary On
Versions: 1 2 3 4 5 6 7 8 9 10 11 12 13 14 15 16 17 18 19 20 21 22 23 24 25 26 27 28 29 30 31 32 33 34 35 36 37 38 39 40 41 42 43 44 45 46 47 48 49 50
000
ASUS43 KBIS 221902
RWRBIS

NWR BROADCAST TEXT
NATIONAL WEATHER SERVICE BISMARCK ND
200 PM CDT MON JUL 22 2019

NOTE: "FAIR" INDICATES FEW OR NO CLOUDS BELOW 12,000 FEET WITH NO
SIGNIFICANT WEATHER AND/OR OBSTRUCTIONS TO VISIBILITY.


CITY           SKY/WX    TMP DP  RH WIND       PRES   REMARKS
WILLISTON      SUNNY     80  52  37 S7        30.29F
MINOT          MOSUNNY   77  53  43 S10       30.29F
MINOT AFB      NOT AVBL
BISMARCK       SUNNY     76  53  44 S3        30.31F
DICKINSON      SUNNY     77  51  40 VRB3      30.30F
GARRISON         N/A     76  54  46 VRB5      30.30F
HETTINGER ARPT MOSUNNY   74  55  51 SE8       30.33F
JAMESTOWN      MOSUNNY   74  57  55 CALM      30.31F
CARRINGTON     FAIR      75  57  53 W7        30.33F
HAZEN          FAIR      77  55  47 SW5       30.32S
MANDAN         FAIR      75  59  57 S6        30.32F
OAKES          FAIR      73  73 100 N9G15     30.32F
RUGBY          FAIR      75  57  53 VRB5G12   30.29F
STANLEY        FAIR      75  52  43 CALM      30.32S
TIOGA          FAIR      77  52  41 VRB5      30.32F
WATFORD CITY     N/A    N/A N/A N/A MISG        N/A
$$

CITY           SKY/WX    TMP DP  RH WIND       PRES   REMARKS
GRAND FORKS    PTSUNNY   75  55  49 W7        30.27S
GRAND FORKS AF MOSUNNY   79  55  43 N6        30.28S
DEVILS LAKE    MOSUNNY   74  55  51 W5        30.31F
FARGO          MOSUNNY   77  52  41 NW9       30.29F
CANDO          FAIR      77  57  50 W7G15     30.32S
CAVALIER       FAIR      75  55  50 N10       30.26S
GRAFTON        FAIR      79  54  41 W8        30.28S
GWINNER          N/A     73  54  49 CALM      30.31F
LANGDON        FAIR     N/A N/A N/A W9G15     30.30S
ROLLA          MOCLDY    73  59  60 W5        30.31F
WALHALLA       FAIR      77  55  47 NW9       30.26F
$$

CITY           SKY/WX    TMP DP  RH WIND       PRES   REMARKS
ABERDEEN       SUNNY     77  56  48 NE8       30.32F
MOBRIDGE       SUNNY     79  60  52 SW6       30.29F
BUFFALO          N/A     78  54  43 SE15G22   30.28F
RAPID CITY     SUNNY     75  56  51 S12G21    30.33F
GLASGOW        SUNNY     84  44  24 SE17G36   30.21F
SIDNEY         SUNNY     80  52  37 E8        30.27F
WOLF POINT     SUNNY     83  49  30 E8        30.25F
GLENDIVE       SUNNY     82  47  29 S10       30.27F
MILES CITY     SUNNY     83  53  35 SE16G22   30.22F
BAKER          SUNNY     77  51  40 E17G24    30.30F
$$

CITY           SKY/WX    TMP DP  RH WIND       PRES   REMARKS
BILLINGS       MOSUNNY   83  58  42 VRB5      30.22F
GREAT FALLS    SUNNY     82  50  32 NE10      30.16S
$$




USA.gov is the U.S. government's official web portal to all federal, state and local government web resources and services.